Location: Unspecified
(35.6961°N, 0.0000°E)
Time: 08:42:17
(UTC+00:00)

Vanguard 3 - Pass Details

Date: 30 May 2019
Orbit: 508 x 3263 km, 33.3° (Epoch: 16 June)

Event Time Altitude Azimuth Distance (km) Brightness Sun altitude
Rises 20:39:17 0° 265° (W) 2,989 10.7 -15.8°
Reaches altitude 10° 20:41:12 10° 263° (W) 2,249 10.0 -16.1°
Maximum altitude 20:46:22 74° 179° (S) 1,055 7.5 -16.8°
Enters shadow 20:54:18 14° 97° (E) 3,437 9.9 -18.0°
Drops below altitude 10° 20:55:29 10° 96° (E) 3,860 - -18.1°
Sets 20:59:44 0° 95° (E) 5,324 - -18.7°
